#timestamp,LO_Frequency,Hit,StdDev 
1591005615.5,286047002.7,N
1591005635.3,286046999.0,N
1591005655.1,286046999.0,N
1591005675.9,286046996.5,N
1591005695.7,286046997.1,N
1591005715.6,286046999.6,N
1591005735.4,286046998.8,N
1591005755.2,286046996.9,N
1591005775.1,286046999.3,N
1591005776.0,286046999.3,N
1591005795.8,286046997.0,N
1591005815.7,286046999.1,N
1591005835.5,286046999.4,N
1591005855.3,286046996.7,N
1591005875.2,286046999.3,N
1591005895.0,286047000.9,N
1591005895.9,286047000.9,N
1591005915.8,286046998.9,N
1591005935.6,286047000.6,N
1591005955.4,286046999.7,N
1591005975.3,286046998.5,N
1591005995.1,286047001.1,N
1591006015.9,286047000.5,N
1591006035.7,286047002.5,N
1591006055.5,286047000.3,N
1591006075.4,286047002.0,N
1591006095.2,286047001.5,N
1591006115.0,286047000.3,N
1591006116.0,286047000.3,N
1591006135.8,286047000.3,N
1591006155.6,286047001.2,N
1591006175.5,286047001.6,N
1591006195.3,286047005.8,Y
1591006215.1,286047004.4,P
1591006235.9,286047001.4,N
1591006255.7,286047004.2,N
1591006275.6,286047003.9,N
1591006295.4,286047003.7,N
1591006315.2,286047003.8,N
1591006335.1,286047001.3,N
1591006336.0,286047001.3,N
1591006355.8,286047003.7,N
1591006375.7,286047004.4,N
1591006395.5,286047001.8,N
1591006415.3,286047001.7,N
1591006435.2,286047002.7,N
1591006455.0,286047002.4,N
1591006455.9,286047002.4,N
1591006475.7,286047002.6,N
1591006495.6,286046998.1,N
1591006515.4,286047002.4,N
1591006535.3,286047000.0,N
1591006555.1,286047000.6,N
1591006575.8,286047000.8,N
1591006595.7,286047001.1,N
1591006615.5,286047002.2,N
1591006635.4,286047002.1,N
1591006655.2,286047001.6,N
1591006675.0,286047002.3,N
1591006675.9,286047002.3,N
1591006695.8,286047000.5,N
1591006715.6,286046998.9,N
1591006735.4,286047000.5,N
1591006755.3,286047001.3,N
1591006775.1,286046999.7,N
1591006795.9,286046999.7,N
1591006815.7,286047004.4,N
1591006835.5,286047002.8,N
1591006855.4,286047001.0,N
1591006875.2,286047001.2,N
1591006895.0,286046999.0,N
1591006896.0,286046999.0,N
1591006915.8,286046996.5,N
1591006935.6,286046996.6,N
1591006955.5,286046998.3,N
1591006975.3,286046997.0,N
1591006995.1,286046999.1,N
1591007015.9,286046998.2,N
1591007035.7,286046998.7,N
1591007055.6,286047001.2,N
1591007075.4,286046998.9,N
1591007095.2,286046997.4,N
1591007115.1,286046996.7,N
1591007116.0,286046996.7,N
1591007135.8,286046998.3,N
1591007155.6,286047000.0,N
1591007175.5,286046998.5,N
1591007195.3,286046998.6,N
1591007215.2,286046999.6,N
1591007235.9,286047000.7,N
1591007255.7,286046998.3,N
1591007275.6,286046998.7,N
1591007295.4,286046998.4,N
1591007315.3,286047000.5,N
1591007335.1,286047002.8,N
1591007336.0,286047002.8,N
1591007355.8,286047001.8,N
1591007375.7,286047001.9,N
1591007395.5,286046999.7,N
1591007415.3,286047000.3,N
1591007435.2,286047001.7,N
1591007455.0,286047002.6,N
1591007455.9,286047002.6,N
1591007475.8,286047000.2,N
1591007495.6,286047002.8,N
1591007515.4,286046999.9,N
1591007535.3,286047002.0,N
1591007555.1,286047002.8,N
1591007575.9,286047002.7,N
1591007595.7,286046999.9,N
1591007615.5,286047001.6,N
1591007635.4,286047002.5,N
1591007655.2,286047002.8,N
1591007675.0,286047002.7,N
1591007675.9,286047002.7,N
1591007695.8,286047002.3,N
1591007715.6,286047002.1,N
1591007735.5,286047000.9,N
1591007755.3,286047000.3,N
1591007775.1,286046999.7,N
1591007795.9,286047002.6,N
1591007815.7,286047000.5,N
1591007835.5,286047001.1,N
1591007855.4,286047000.6,N
1591007875.2,286046999.4,N
1591007895.1,286046999.3,N
1591007896.0,286046999.3,N
1591007915.8,286046999.2,N
1591007935.6,286046999.1,N
1591007955.5,286046999.1,N
1591007975.3,286046998.9,N
1591007995.2,286046998.2,N
1591008015.9,286047000.7,N
1591008035.7,286046999.5,N
1591008055.6,286046997.5,N
1591008075.4,286046997.7,N
1591008095.2,286046997.4,N
1591008115.1,286046996.8,N
1591008116.0,286046996.8,N
1591008135.8,286046995.4,N
1591008155.7,286046995.8,N
1591008175.5,286046998.0,N
1591008195.3,286046997.5,N
1591008215.2,286046997.3,N
1591008235.0,286046998.0,N
1591008235.9,286046998.0,N
1591008255.8,286046998.0,N
1591008275.6,286046995.6,N
1591008295.4,286046995.2,N
1591008315.3,286046996.3,N
1591008335.1,286046993.3,Y
1591008355.9,286046997.3,P
1591008375.7,286046997.2,P
1591008395.5,286046995.0,P
1591008415.4,286046997.3,N
1591008435.2,286046999.5,N
1591008455.1,286046997.1,N
1591008456.0,286046997.1,N
1591008475.8,286046996.7,N
1591008495.6,286046997.7,N
1591008515.5,286046998.0,N
1591008535.3,286046995.0,Y
1591008555.1,286046998.6,P
1591008575.9,286046996.9,P
1591008595.7,286046997.1,P
1591008615.6,286046999.0,N
1591008635.4,286046997.8,N
1591008655.2,286046997.6,Y
1591008675.1,286046999.5,P
1591008676.0,286046999.5,N
1591008695.8,286046994.9,P
1591008715.7,286046995.3,N
1591008735.5,286046995.4,N
1591008755.3,286046996.1,N
1591008775.2,286046995.6,N
1591008795.0,286046995.4,N
1591008795.9,286046995.4,N
1591008815.8,286046995.5,N
1591008835.6,286046995.8,N
1591008855.4,286046996.1,N
1591008875.3,286046993.5,Y
1591008895.1,286046999.6,P
1591008915.8,286046999.2,N
1591008935.7,286046997.1,N
1591008955.5,286046996.7,N
1591008975.4,286046996.6,N
1591008995.2,286046996.6,N
1591009015.0,286046997.1,N
1591009015.9,286046997.1,N
1591009035.8,286046999.5,N
1591009055.6,286046998.1,N
1591009075.5,286046999.5,N
1591009095.3,286046999.3,N
1591009115.1,286046999.1,N
1591009135.9,286046999.2,N
1591009155.7,286046998.9,N
1591009175.5,286046998.5,N
1591009195.4,286046998.2,N
